Madison, MN

7:39 AM CST on January 23, 2017 (GMT -0600)
Madison-Lac Qui Parle County

Weather History for KDXX - November, 2011

Change the Weather History Date:

Monday, November 14, 2011

  Actual Average (KAQP) Record (KAQP)
Temperature  
Mean Temperature 38 °F -  
Max Temperature 51 °F 37 °F 66 °F (2015)
Min Temperature 26 °F 21 °F -5 °F (2014)
Degree Days  
Heating Degree Days 26    
Moisture  
Dew Point 21 °F    
Average Humidity 50    
Maximum Humidity 75    
Minimum Humidity 19    
Precipitation  
Precipitation 0.00 in - - ()
Sea Level Pressure  
Sea Level Pressure 29.46 in    
Wind  
Wind Speed 12 mph (WSW)    
Max Wind Speed 28 mph    
Max Gust Speed 36 mph    
Visibility 10 miles    
Events      
Averages and records for this station are not official NWS values.
T = Trace of Precipitation, MM = Missing Value Source: NWS Daily Summary

Daily Weather History Graph

Daily Weather History Graph

Search for Another Location

Airport or City:

Trip Planner

Search our weather history database for the weather conditions in past years. The results will help you decide how hot, cold, wet, or windy it might be!

Date:

Astronomy

Nov. 14, 2011 Rise Set
Actual Time 7:20 AM CST 4:57 PM CST
Civil Twilight 6:49 AM CST 5:28 PM CST
Nautical Twilight 6:13 AM CST 6:04 PM CST
Astronomical Twilight 5:38 AM CST 6:38 PM CST
Moon 8:01 PM CST (11/14) 10:43 AM CST (11/14)
Length of Visible Light 10h 39m
Length of Day
9h 36m
Waning Gibbous, 86% of the Moon is Illuminated
Nov 14
Waning Gibbous
Nov 18
Last Quarter
Nov 25
New
Dec 2
First Quarter
Dec 10
Full

Hourly Weather History & Observations

Time (CST) Temp. Windchill Dew Point Humidity Pressure Visibility Wind Dir Wind Speed Gust Speed Precip Events Conditions
12:14 AM 33.8 °F 27.0 °F 24.8 °F 70% 29.41 in 10.0 mi SSW 8.1 mph - N/A   Clear
12:34 AM 33.8 °F 25.8 °F 24.8 °F 70% 29.40 in 10.0 mi SSW 10.4 mph - N/A   Clear
12:53 AM 37.4 °F 30.8 °F 24.8 °F 60% 29.40 in 10.0 mi SSW 9.2 mph - N/A   Clear
1:14 AM 35.6 °F 28.0 °F 24.8 °F 65% 29.40 in 10.0 mi SW 10.4 mph - N/A   Clear
1:34 AM 35.6 °F 28.0 °F 24.8 °F 65% 29.40 in 10.0 mi SW 10.4 mph - N/A   Clear
1:53 AM 35.6 °F 28.0 °F 23.0 °F 60% 29.40 in 10.0 mi SW 10.4 mph - N/A   Clear
2:14 AM 37.4 °F 29.8 °F 21.2 °F 52% 29.40 in 10.0 mi WSW 11.5 mph - N/A   Clear
2:34 AM 37.4 °F 30.3 °F 21.2 °F 52% 29.40 in 10.0 mi WSW 10.4 mph - N/A   Clear
2:53 AM 37.4 °F 30.8 °F 21.2 °F 52% 29.40 in 10.0 mi SW 9.2 mph - N/A   Clear
3:14 AM 37.4 °F 29.8 °F 21.2 °F 52% 29.40 in 10.0 mi WSW 11.5 mph 16.1 mph N/A   Clear
3:34 AM 37.4 °F 30.3 °F 21.2 °F 52% 29.41 in 10.0 mi WSW 10.4 mph - N/A   Clear
3:53 AM 35.6 °F 28.6 °F 21.2 °F 56% 29.40 in 10.0 mi WSW 9.2 mph - N/A   Clear
4:14 AM 35.6 °F 29.2 °F 23.0 °F 60% 29.40 in 10.0 mi WSW 8.1 mph - N/A   Clear
4:34 AM 33.8 °F 26.4 °F 23.0 °F 65% 29.40 in 10.0 mi SW 9.2 mph - N/A   Clear
4:53 AM 33.8 °F 28.6 °F 23.0 °F 65% 29.41 in 10.0 mi SW 5.8 mph - N/A   Clear
5:14 AM 30.2 °F 23.4 °F 23.0 °F 75% 29.40 in 10.0 mi SW 6.9 mph - N/A   Clear
5:34 AM 30.2 °F 24.3 °F 23.0 °F 75% 29.41 in 10.0 mi WSW 5.8 mph - N/A   Clear
6:14 AM 30.2 °F 23.4 °F 23.0 °F 75% 29.42 in 10.0 mi West 6.9 mph - N/A   Clear
6:33 AM 33.8 °F 27.0 °F 24.8 °F 70% 29.42 in 10.0 mi West 8.1 mph - N/A   Clear
6:54 AM 33.8 °F 27.0 °F 24.8 °F 70% 29.41 in 10.0 mi West 8.1 mph - N/A   Clear
7:33 AM 33.8 °F 27.0 °F 26.6 °F 75% 29.43 in 10.0 mi West 8.1 mph - N/A   Clear
8:33 AM 37.4 °F 30.8 °F 30.2 °F 75% 29.44 in 10.0 mi West 9.2 mph - N/A   Clear
8:54 AM 37.4 °F 28.5 °F 30.2 °F 75% 29.45 in 10.0 mi West 15.0 mph 20.7 mph N/A   Clear
9:14 AM 39.2 °F 30.2 °F 30.2 °F 70% 29.45 in 10.0 mi West 17.3 mph 20.7 mph N/A   Clear
9:33 AM 39.2 °F 31.2 °F 30.2 °F 70% 29.46 in 10.0 mi West 13.8 mph - N/A   Clear
9:54 AM 39.2 °F 33.0 °F 30.2 °F 70% 29.46 in 10.0 mi West 9.2 mph - N/A   Clear
10:14 AM 42.8 °F 35.8 °F 30.2 °F 61% 29.46 in 10.0 mi West 13.8 mph - N/A   Clear
10:34 AM 44.6 °F 36.1 °F 30.2 °F 57% 29.46 in 10.0 mi WNW 21.9 mph 26.5 mph N/A   Clear
10:54 AM 46.4 °F 39.5 °F 28.4 °F 50% 29.46 in 10.0 mi West 17.3 mph - N/A   Clear
11:14 AM 48.2 °F - 26.6 °F 43% 29.45 in 10.0 mi West 21.9 mph 25.3 mph N/A   Clear
11:33 AM 48.2 °F - 26.6 °F 43% 29.45 in 10.0 mi WNW 23.0 mph 26.5 mph N/A   Clear
11:54 AM 48.2 °F - 23.0 °F 37% 29.46 in 10.0 mi West 18.4 mph 24.2 mph N/A   Clear
12:14 PM 50.0 °F - 21.2 °F 32% 29.46 in 10.0 mi WNW 25.3 mph 28.8 mph N/A   Clear
12:33 PM 50.0 °F - 15.8 °F 26% 29.45 in 10.0 mi West 27.6 mph 33.4 mph N/A   Clear
12:54 PM 51.8 °F - 14.0 °F 22% 29.45 in 10.0 mi West 25.3 mph 32.2 mph N/A   Clear
1:14 PM 51.8 °F - 10.4 °F 19% 29.46 in 10.0 mi West 27.6 mph 35.7 mph N/A   Clear
1:33 PM 51.8 °F - 10.4 °F 19% 29.46 in 10.0 mi West 20.7 mph 32.2 mph N/A   Clear
1:54 PM 51.8 °F - 10.4 °F 19% 29.46 in 10.0 mi West 20.7 mph 32.2 mph N/A   Clear
2:13 PM 51.8 °F - 12.2 °F 21% 29.47 in 10.0 mi West 21.9 mph 29.9 mph N/A   Clear
2:33 PM 51.8 °F - 10.4 °F 19% 29.48 in 10.0 mi West 24.2 mph 32.2 mph N/A   Clear
2:54 PM 51.8 °F - 12.2 °F 21% 29.48 in 10.0 mi West 23.0 mph 32.2 mph N/A   Clear
3:14 PM 51.8 °F - 14.0 °F 22% 29.48 in 10.0 mi West 19.6 mph 28.8 mph N/A   Clear
3:33 PM 50.0 °F - 12.2 °F 22% 29.48 in 10.0 mi West 19.6 mph 27.6 mph N/A   Clear
3:54 PM 50.0 °F - 15.8 °F 26% 29.49 in 10.0 mi West 17.3 mph 23.0 mph N/A   Clear
4:13 PM 48.2 °F - 17.6 °F 30% 29.49 in 10.0 mi West 16.1 mph 23.0 mph N/A   Clear
4:34 PM 48.2 °F - 15.8 °F 27% 29.50 in 10.0 mi West 16.1 mph 23.0 mph N/A   Clear
4:54 PM 46.4 °F 40.4 °F 17.6 °F 32% 29.51 in 10.0 mi West 13.8 mph - N/A   Clear
5:13 PM 44.6 °F 39.2 °F 15.8 °F 31% 29.51 in 10.0 mi WNW 10.4 mph - N/A   Clear
5:34 PM 42.8 °F 38.0 °F 17.6 °F 36% 29.52 in 10.0 mi West 8.1 mph - N/A   Clear
5:54 PM 39.2 °F 34.2 °F 17.6 °F 42% 29.53 in 10.0 mi West 6.9 mph - N/A   Clear
6:13 PM 39.2 °F 37.0 °F 19.4 °F 45% 29.54 in 10.0 mi WSW 3.5 mph - N/A   Clear
6:34 PM 37.4 °F 32.1 °F 17.6 °F 45% 29.55 in 10.0 mi SW 6.9 mph - N/A   Clear
6:54 PM 37.4 °F 32.1 °F 17.6 °F 45% 29.55 in 10.0 mi SW 6.9 mph - N/A   Clear
7:13 PM 37.4 °F 33.8 °F 17.6 °F 45% 29.56 in 10.0 mi SW 4.6 mph - N/A   Clear
7:34 PM 33.8 °F - 17.6 °F 52% 29.55 in 10.0 mi Calm Calm - N/A   Clear
7:54 PM 30.2 °F - 15.8 °F 55% 29.55 in 10.0 mi Calm Calm - N/A   Clear
8:13 PM 26.6 °F 19.1 °F 17.6 °F 69% 29.54 in 10.0 mi East 6.9 mph - N/A   Clear
8:34 PM 26.6 °F 18.2 °F 15.8 °F 64% 29.55 in 10.0 mi South 8.1 mph - N/A   Clear
8:54 PM 28.4 °F 24.6 °F 17.6 °F 64% 29.54 in 10.0 mi South 3.5 mph - N/A   Clear
9:13 PM 28.4 °F 22.2 °F 17.6 °F 64% 29.54 in 10.0 mi South 5.8 mph - N/A   Clear
9:34 PM 28.4 °F 22.2 °F 17.6 °F 64% 29.55 in 10.0 mi South 5.8 mph - N/A   Clear
9:54 PM 28.4 °F 20.4 °F 17.6 °F 64% 29.54 in 10.0 mi SSE 8.1 mph - N/A   Scattered Clouds
10:14 PM 30.2 °F 22.6 °F 19.4 °F 64% 29.54 in 10.0 mi SSE 8.1 mph - N/A   Mostly Cloudy
10:34 PM 30.2 °F 24.3 °F 19.4 °F 64% 29.54 in 10.0 mi SSE 5.8 mph - N/A   Mostly Cloudy
10:54 PM 30.2 °F 25.4 °F 19.4 °F 64% 29.54 in 10.0 mi South 4.6 mph - N/A   Mostly Cloudy
11:13 PM 30.2 °F - 19.4 °F 64% 29.55 in 10.0 mi Calm Calm - N/A   Overcast
11:34 PM 30.2 °F 25.4 °F 19.4 °F 64% 29.55 in 10.0 mi South 4.6 mph - N/A   Overcast
11:54 PM 30.2 °F 26.7 °F 19.4 °F 64% 29.54 in 10.0 mi SSE 3.5 mph - N/A   Overcast